Temperature
10 10 10 10 10 10 10 10 10 11 11 11 11 11 11 12 12 12 12 12 12 12 12 12 12 12 12 12 12 12 12 12 12 12 12 12 12 12 12 12 11 11 11
10 10 10 9 9 9 9 9 10 10 10 10 10 11 11 11 11 11 12 12 12 12 12 12 12 12 12 12 12 12 12 12 12 12 11 11 11 11 11 11 11 11 11
9 9 9 9 9 9 9 9 9 9 10 10 10 10 10 11 11 11 11 11 11 11 12 12 12 12 12 12 12 12 12 12 12 11 11 10 10 10 11 11 11 10 10
9 9 9 8 8 8 8 9 9 9 9 9 9 10 10 10 10 10 10 11 11 11 11 11 11 11 11 11 11 11 11 11 11 11 11 10 10 10 9 10 10 10 10
8 8 8 8 8 8 8 8 8 9 9 9 9 9 9 9 10 10 10 10 10 10 10 10 11 11 11 11 11 11 11 10 10 10 10 10 10 9 9 9 9 9 9
8 8 8 8 8 8 8 8 8 8 8 8 8 9 9 9 9 9 9 9 9 10 10 10 10 10 10 10 10 10 10 10 10 9 9 9 9 9 8 8 8 8 9
8 7 7 7 7 7 7 7 7 8 8 8 8 8 8 9 9 9 9 9 9 9 9 9 9 10 10 10 10 10 10 9 9 9 9 9 9 8 8 8 7 7 8
7 7 7 7 7 7 7 7 7 7 7 7 8 8 8 8 8 8 8 8 8 8 9 9 9 9 9 9 9 9 9 9 9 8 8 8 8 8 7 7 7 6 6
7 7 7 7 6 6 6 6 6 7 7 7 7 7 7 8 8 8 8 8 8 8 8 8 8 8 8 8 8 8 8 8 8 8 8 8 7 7 7 6 6 6 5
7 7 6 6 6 6 6 6 6 6 6 7 7 7 7 7 7 7 7 8 8 8 7 7 8 8 8 8 8 8 7 7 7 7 7 7 6 6 6 6 6 5 5
7 6 6 6 6 6 6 6 6 6 6 6 6 7 7 7 7 7 7 7 7 7 7 7 7 7 7 7 7 7 7 7 7 7 6 6 6 6 6 5 5 5 5
6 6 6 6 6 6 6 6 6 6 6 6 6 6 6 6 6 6 6 6 7 7 7 7 7 7 7 7 7 7 7 6 6 6 6 5 5 5 5 5 5 4 4
6 6 6 5 5 5 5 5 5 5 6 6 6 6 6 6 6 6 6 6 6 6 6 6 6 6 6 6 6 6 6 6 6 5 5 5 5 5 4 4 4 4 4
6 6 5 5 5 5 5 5 5 5 5 5 5 5 5 5 5 5 6 6 6 6 6 6 6 5 5 5 5 5 5 5 5 5 4 4 4 4 4 4 4 4 3
6 6 5 5 5 5 5 5 5 5 5 5 5 5 5 5 5 5 5 5 5 5 5 5 5 5 5 5 5 5 5 5 4 4 4 4 4 4 3 3 3 3 3
6 6 5 5 5 5 5 5 5 5 5 5 5 5 5 5 5 5 5 5 5 5 5 5 5 5 4 4 4 4 4 4 4 4 3 3 3 3 3 3 3 3 3
6 6 5 5 5 5 5 5 5 5 5 5 5 5 5 5 5 5 5 5 5 5 4 4 4 4 4 4 4 4 4 4 3 3 3 3 3 3 3 3 3 3 3
6 6 6 5 5 5 5 5 5 5 5 5 5 5 5 5 5 4 4 4 4 4 4 4 4 4 4 4 4 4 4 3 3 3 2 2 2 2 2 2 2 2 2
6 6 6 5 5 5 5 5 5 5 4 5 5 5 4 4 4 4 4 4 4 3 3 3 3 3 3 3 3 3 3 3 3 2 2 2 2 2 2 2 2 2 2
6 6 6 5 5 5 5 4 4 4 5 5 4 4 4 4 4 4 4 4 3 3 3 3 3 3 3 3 2 2 2 2 2 2 2 2 1 1 1 1 2 1 1
6 6 6 5 5 5 4 4 4 4 4 4 4 4 4 4 4 4 3 3 3 3 3 2 2 2 2 2 2 2 2 2 2 1 1 1 1 1 1 1 1 1 1
6 6 6 5 5 5 4 4 4 4 4 4 4 4 4 4 3 3 3 3 3 2 2 2 2 2 2 2 2 1 1 1 1 1 1 0 0 0 1 0 0 0 0
6 6 5 5 5 4 4 4 4 4 4 4 4 3 3 3 3 3 3 2 2 2 2 2 1 1 1 1 1 1 1 1 0 0 0 -0 -0 -0 -0 -0 -0 -0 -0
6 5 5 5 5 4 4 4 4 4 4 3 3 3 3 3 3 2 2 2 2 2 1 1 1 1 1 0 0 0 0 0 -0 -0 -0 -0 -1 -1 -1 -1 -1 -1 -1
5 5 5 5 5 4 4 4 4 3 3 3 3 3 2 2 2 2 2 2 1 1 1 1 0 0 0 0 -0 -0 -0 -0 -1 -1 -1 -1 -1 -1 -1 -1 -2 -2 -2
5 5 5 5 4 4 4 4 4 3 3 3 2 2 2 2 2 2 1 1 1 1 1 0 -0 -0 -0 -1 -1 -1 -1 -1 -1 -1 -1 -1 -2 -2 -2 -2 -2 -2 -2
Wind_Speed
1 1 1 2 2 3 3 2 2 3 2 1 1 2 1 1 1 2 3 2 2 2 2 3 3 3 3 3 3 3 3 3 2 1 2 3 4 4 3 2 2 3 5
1 1 1 2 2 2 3 3 2 3 2 1 1 1 1 1 1 1 2 2 2 2 2 2 3 3 3 3 3 3 3 2 2 2 1 2 3 4 5 4 4 4 3
1 1 1 2 2 2 3 3 2 2 2 2 0 1 1 1 1 1 1 2 2 2 2 2 2 3 3 4 4 4 4 3 3 2 2 2 3 2 3 4 4 3 3
1 1 1 2 2 2 2 3 2 2 1 1 1 2 2 2 1 1 1 2 2 2 2 2 1 2 3 3 3 3 3 3 4 3 2 2 1 2 3 3 4 4 4
1 2 2 2 2 2 2 3 2 1 1 1 2 2 1 2 2 2 2 2 2 2 2 1 1 1 1 2 2 3 3 3 4 3 2 3 2 3 3 4 4 4 5
1 1 3 3 2 3 3 3 3 2 1 1 2 3 3 3 3 2 2 1 1 1 1 1 1 1 1 1 2 3 3 3 3 3 3 2 2 2 2 4 5 5 5
1 1 2 2 2 3 2 2 3 3 3 2 2 2 2 2 3 2 2 2 1 1 1 0 0 1 0 1 1 2 2 3 3 3 3 3 4 3 3 4 5 5 4
1 1 2 2 2 2 2 3 3 3 3 3 2 2 2 1 1 1 1 1 1 0 1 0 0 0 0 0 1 1 2 2 2 3 3 3 3 3 3 3 4 5 5
1 1 1 2 2 2 2 3 3 3 4 4 3 3 3 3 2 2 2 1 1 0 1 0 1 0 0 0 0 1 1 1 2 2 3 3 3 3 3 3 3 5 6
1 1 1 2 2 2 2 3 3 3 3 4 4 4 4 3 2 2 2 2 1 1 1 1 1 0 0 0 1 1 1 2 2 2 3 4 3 4 4 4 4 4 6
1 1 1 2 2 3 3 3 3 4 4 4 4 4 3 3 3 3 3 2 2 2 2 1 1 0 0 1 1 1 2 2 2 2 3 4 4 3 3 3 4 5 5
1 1 1 2 2 2 3 3 3 3 3 3 3 3 3 3 3 3 2 2 2 2 2 1 1 1 1 1 1 2 2 2 3 3 3 4 4 4 4 4 5 5 5
2 2 1 1 2 2 2 2 3 3 3 3 3 3 3 3 3 2 2 2 2 1 1 1 1 1 1 1 1 1 2 2 3 3 3 4 5 5 5 5 5 5 6
3 3 2 1 2 2 1 2 2 2 2 2 2 2 2 3 2 2 2 2 2 1 1 1 1 1 1 1 2 2 2 2 3 3 3 4 4 5 6 5 5 5 6
3 3 3 2 1 1 1 1 1 2 2 2 2 2 2 2 2 2 2 2 2 2 1 2 2 1 1 2 2 2 2 2 3 3 4 4 5 6 6 6 5 5 6
4 4 3 2 2 2 2 1 1 2 1 1 1 2 2 2 2 2 2 2 2 2 2 1 1 1 2 3 4 3 2 2 3 4 4 5 5 5 7 8 7 7 6
3 4 4 4 3 2 2 2 1 1 1 1 1 1 1 1 1 2 2 2 2 2 1 1 1 1 2 3 4 4 2 2 3 4 4 5 5 6 6 7 8 7 8
4 4 4 4 3 3 2 2 2 2 2 1 1 1 1 1 1 1 1 1 1 1 1 1 1 1 3 5 5 5 3 3 3 4 4 5 5 5 6 6 6 5 5
4 4 4 4 4 4 3 3 3 2 2 1 1 0 0 0 0 1 1 1 1 1 1 1 1 1 3 5 6 5 2 3 4 4 4 5 5 8 8 5 5 6 5
3 3 4 4 4 4 4 3 3 3 2 2 1 1 1 1 1 1 1 0 1 1 1 2 1 1 2 4 6 5 2 3 4 4 4 5 6 8 9 5 5 6 6
4 4 4 4 5 5 4 4 3 4 3 2 1 1 1 1 1 0 0 0 0 1 1 1 2 2 2 4 5 6 3 3 4 4 4 4 8 8 8 7 5 6 6
4 5 4 4 4 5 5 5 4 4 3 3 2 2 2 1 1 1 0 0 0 0 1 1 2 2 2 3 5 6 6 5 3 4 4 4 7 8 7 6 7 8 6
4 5 5 4 4 5 6 6 5 4 3 3 3 3 2 2 1 1 1 0 0 1 1 1 2 2 2 3 6 6 7 7 4 4 5 6 6 6 5 6 7 6 4
5 5 5 5 5 4 5 5 4 4 4 4 3 3 2 2 1 1 1 1 1 1 1 1 2 2 2 3 3 3 4 5 4 4 5 5 5 4 4 5 4 3 3
4 5 6 6 6 5 5 4 4 5 4 4 3 3 3 2 2 2 2 2 2 2 2 2 2 2 3 4 5 4 3 3 3 3 2 2 3 3 3 3 3 3 3
5 5 6 6 6 6 5 5 5 5 5 4 3 3 2 2 2 2 1 2 2 2 2 2 2 3 4 5 6 6 6 6 4 2 2 2 2 3 3 4 3 3 3
Wind_Direction
318 19 357 343 351 354 349 336 318 320 315 297 235 194 172 174 159 161 153 158 162 162 158 177 177 176 181 186 181 183 195 204 189 194 248 258 243 230 217 219 228 224 215
320 2 12 18 10 0 352 335 331 319 305 280 248 201 172 168 160 154 144 151 149 144 163 161 177 174 178 185 188 187 188 193 177 176 200 258 264 244 238 228 227 226 214
291 347 5 11 359 356 347 329 320 303 303 299 253 125 137 121 112 119 112 118 115 119 120 130 157 177 181 190 197 192 189 199 200 178 178 200 238 279 246 231 226 229 240
336 13 18 358 355 353 344 335 335 317 290 264 179 173 179 165 183 156 136 114 92 90 95 108 146 170 180 188 196 190 200 197 209 211 213 214 200 231 270 257 236 247 250
4 4 2 6 6 8 349 341 339 327 284 223 173 173 167 160 151 133 131 127 109 92 96 112 122 147 166 183 197 197 203 208 213 212 218 236 251 234 239 263 262 257 247
12 2 6 3 5 19 15 0 5 27 25 118 152 152 152 148 144 142 152 137 137 131 109 120 148 160 143 171 200 200 202 216 217 222 215 216 225 237 252 263 266 264 255
349 19 5 346 7 28 28 19 26 32 28 53 90 113 126 139 142 158 157 161 169 154 148 158 180 179 188 219 213 202 204 214 222 229 231 231 238 244 253 266 274 276 275
11 19 6 354 17 33 40 38 40 35 30 36 51 74 91 112 125 127 135 152 123 92 103 149 222 92 60 243 203 201 209 215 227 242 239 243 250 252 253 257 271 278 275
30 29 25 30 42 40 42 49 49 41 37 39 50 62 76 80 85 81 87 77 81 93 43 30 26 22 320 300 188 194 219 226 234 244 249 251 252 249 248 251 257 253 271
51 57 51 45 48 46 43 54 54 48 41 40 49 53 57 58 60 68 65 63 50 46 43 40 31 354 292 262 213 218 237 234 245 252 259 258 259 252 245 246 251 252 255
67 61 51 55 58 51 51 56 53 48 44 43 49 58 60 67 63 65 62 57 53 53 49 39 20 29 276 258 227 225 233 241 260 276 268 265 264 256 257 260 256 260 259
129 97 78 80 70 61 54 60 62 52 44 47 50 56 53 57 64 64 60 58 51 55 60 48 32 15 359 312 264 258 261 256 263 269 273 274 278 270 262 261 263 263 268
162 156 145 129 110 85 68 64 69 60 44 48 45 47 47 51 52 53 63 73 68 65 60 62 41 16 347 330 317 299 286 275 272 274 276 279 271 268 265 265 266 267 277
179 181 175 170 134 109 91 83 74 70 57 57 54 48 43 48 47 41 50 65 62 64 53 36 24 2 338 341 326 310 298 288 281 278 277 278 271 269 272 268 265 269 272
191 190 181 181 158 137 127 124 113 92 74 68 63 49 44 54 52 37 34 43 42 33 39 41 32 15 353 335 334 317 307 302 294 286 276 277 277 282 280 274 270 270 269
201 192 180 172 175 174 165 138 125 113 102 85 74 55 54 55 54 40 37 42 43 33 31 33 32 10 340 335 331 322 305 307 299 292 289 283 274 287 294 292 287 280 274
202 191 184 184 184 181 163 161 148 124 114 100 83 61 58 53 40 27 32 36 28 13 358 348 17 343 326 339 339 338 332 315 304 299 299 300 299 295 288 288 288 282 280
194 190 181 176 174 166 160 161 152 146 139 125 103 82 65 43 28 33 27 13 2 339 325 320 331 342 347 356 352 348 336 314 312 313 311 308 311 305 303 297 294 291 286
192 186 180 174 167 168 167 163 162 158 154 156 140 118 83 359 360 15 347 347 360 344 341 346 351 352 346 358 355 354 331 319 318 319 320 319 318 323 319 303 293 294 295
173 178 174 166 167 172 165 174 180 180 191 192 192 194 190 209 248 272 290 329 337 323 333 340 339 337 340 350 348 347 328 320 313 311 313 321 327 329 328 313 296 293 298
182 177 174 178 178 171 169 186 192 198 199 184 181 189 195 211 223 241 276 294 315 329 337 330 329 336 348 342 339 340 331 317 312 315 319 323 330 330 331 327 311 311 314
186 182 179 185 178 169 173 189 204 201 180 177 189 199 203 208 202 192 255 318 67 335 322 321 330 336 335 333 329 334 329 326 315 312 314 319 332 330 331 331 335 336 335
192 185 180 182 183 180 181 197 202 180 175 183 195 199 201 202 190 186 199 209 216 241 288 303 308 312 315 318 323 324 320 317 311 304 313 323 333 333 331 339 343 342 338
195 186 179 185 194 190 186 192 186 175 177 189 197 194 197 202 194 189 193 199 215 230 263 283 289 302 310 311 317 317 311 307 303 302 313 327 334 334 333 339 342 344 338
196 187 191 197 198 190 192 185 177 173 182 191 195 196 195 196 201 202 217 222 224 216 229 252 262 280 295 306 323 330 321 315 300 312 320 330 333 336 337 341 339 336 340
195 196 199 201 197 188 191 185 176 173 179 191 194 192 190 195 205 209 248 267 252 262 259 270 287 295 309 321 325 327 328 327 330 341 335 324 321 325 327 327 324 323 329
Height
1470 1470 1469 1469 1469 1468 1468 1468 1469 1469 1470 1471 1472 1473 1474 1476 1478 1480 1483 1485 1488 1490 1493 1495 1497 1499 1501 1503 1505 1507 1509 1511 1512 1513 1513 1513 1514 1514 1515 1516 1516 1516 1515
1468 1467 1467 1466 1466 1466 1466 1466 1466 1466 1467 1468 1469 1470 1471 1473 1475 1477 1479 1481 1484 1486 1489 1491 1493 1495 1497 1499 1501 1503 1505 1506 1508 1508 1508 1508 1509 1509 1510 1510 1510 1510 1511
1465 1465 1465 1465 1464 1463 1463 1463 1463 1463 1464 1465 1466 1467 1469 1470 1472 1474 1476 1478 1480 1483 1485 1487 1489 1491 1493 1495 1497 1498 1500 1501 1503 1504 1505 1505 1503 1504 1504 1504 1505 1505 1505
1464 1463 1463 1462 1462 1461 1461 1461 1460 1460 1461 1462 1462 1464 1465 1466 1469 1471 1473 1475 1477 1479 1482 1484 1486 1487 1489 1491 1493 1495 1496 1497 1497 1499 1500 1501 1500 1500 1498 1498 1499 1500 1500
1462 1462 1461 1461 1460 1459 1459 1458 1458 1458 1458 1459 1459 1461 1463 1465 1467 1469 1470 1472 1474 1477 1478 1480 1482 1484 1485 1487 1489 1490 1492 1492 1493 1494 1495 1495 1496 1496 1495 1492 1492 1493 1493
1460 1460 1460 1459 1458 1457 1457 1456 1456 1456 1456 1456 1457 1459 1460 1462 1463 1465 1468 1469 1471 1473 1475 1477 1478 1480 1481 1482 1484 1486 1487 1488 1489 1490 1490 1490 1490 1491 1490 1489 1487 1486 1486
1459 1459 1458 1458 1457 1456 1455 1455 1454 1454 1454 1455 1456 1457 1458 1460 1461 1463 1465 1466 1468 1469 1471 1473 1474 1475 1477 1479 1480 1481 1482 1483 1484 1485 1485 1485 1486 1486 1486 1485 1482 1481 1480
1458 1457 1457 1456 1456 1455 1454 1454 1453 1453 1454 1454 1454 1455 1456 1457 1459 1461 1462 1463 1464 1465 1467 1469 1471 1472 1473 1475 1476 1477 1478 1479 1480 1480 1480 1480 1481 1481 1480 1480 1479 1476 1474
1457 1456 1456 1456 1455 1454 1454 1453 1453 1453 1453 1453 1453 1454 1455 1456 1457 1458 1459 1461 1461 1463 1464 1466 1467 1468 1470 1471 1472 1472 1473 1474 1474 1475 1475 1475 1475 1475 1475 1475 1474 1474 1469
1456 1455 1455 1455 1455 1454 1454 1454 1453 1453 1453 1453 1453 1453 1453 1454 1455 1456 1457 1458 1459 1460 1461 1463 1464 1465 1466 1467 1468 1468 1469 1469 1470 1470 1470 1470 1470 1470 1469 1469 1469 1468 1466
1455 1455 1455 1455 1454 1454 1454 1453 1453 1453 1452 1452 1452 1452 1452 1453 1454 1454 1455 1456 1457 1458 1459 1460 1461 1462 1463 1463 1464 1464 1465 1465 1465 1465 1465 1465 1465 1464 1464 1463 1463 1462 1461
1455 1455 1455 1455 1454 1454 1453 1453 1453 1453 1452 1452 1452 1452 1452 1452 1452 1453 1454 1455 1455 1456 1456 1457 1458 1459 1459 1460 1460 1460 1461 1460 1460 1460 1460 1459 1459 1459 1458 1457 1456 1456 1455
1454 1454 1454 1454 1453 1453 1453 1453 1453 1452 1452 1452 1452 1451 1451 1451 1451 1452 1452 1453 1453 1454 1454 1455 1455 1456 1456 1456 1457 1457 1457 1456 1456 1456 1455 1455 1454 1453 1452 1451 1451 1450 1449
1452 1453 1453 1453 1453 1452 1452 1452 1452 1452 1452 1451 1451 1451 1451 1450 1451 1451 1451 1451 1452 1452 1452 1453 1453 1453 1453 1453 1453 1453 1453 1452 1452 1452 1451 1450 1449 1448 1447 1446 1445 1445 1443
1451 1451 1451 1451 1451 1451 1451 1451 1451 1451 1451 1450 1450 1450 1450 1450 1450 1450 1450 1450 1450 1450 1450 1450 1450 1451 1450 1450 1450 1449 1449 1449 1448 1448 1447 1446 1445 1444 1443 1441 1440 1440 1438
1449 1449 1449 1449 1449 1449 1449 1449 1449 1449 1449 1449 1449 1449 1449 1449 1448 1448 1448 1448 1448 1448 1448 1448 1448 1448 1448 1447 1447 1447 1446 1445 1444 1444 1443 1442 1441 1439 1438 1437 1436 1435 1433
1446 1447 1447 1447 1448 1448 1448 1448 1448 1448 1448 1448 1448 1448 1448 1447 1447 1447 1447 1447 1446 1446 1447 1446 1446 1446 1445 1445 1444 1444 1443 1442 1441 1440 1439 1437 1436 1435 1433 1432 1431 1429 1428
1444 1444 1445 1445 1445 1446 1446 1446 1446 1446 1446 1446 1446 1447 1446 1446 1446 1446 1446 1445 1445 1445 1444 1444 1444 1443 1443 1442 1441 1441 1440 1439 1438 1436 1435 1434 1432 1430 1429 1427 1425 1424 1423
1441 1441 1442 1442 1443 1443 1444 1444 1444 1444 1445 1445 1445 1445 1445 1445 1444 1444 1444 1444 1443 1443 1442 1442 1441 1441 1440 1439 1438 1437 1436 1435 1434 1433 1432 1430 1428 1427 1425 1423 1421 1419 1418
1437 1438 1439 1439 1440 1440 1441 1441 1442 1442 1442 1442 1443 1443 1443 1443 1443 1443 1442 1442 1442 1441 1440 1440 1439 1438 1437 1437 1436 1435 1433 1432 1430 1429 1428 1427 1425 1423 1422 1420 1417 1415 1413
1434 1435 1436 1436 1437 1437 1438 1438 1439 1439 1440 1440 1440 1441 1441 1441 1441 1441 1440 1440 1439 1439 1438 1437 1437 1436 1435 1434 1433 1432 1430 1429 1427 1426 1424 1423 1422 1420 1418 1416 1414 1412 1410
1430 1431 1432 1432 1433 1434 1435 1435 1436 1436 1437 1437 1438 1438 1438 1438 1438 1438 1438 1437 1437 1436 1436 1435 1434 1433 1432 1431 1430 1429 1428 1426 1424 1422 1421 1420 1418 1416 1414 1413 1411 1409 1407
1427 1427 1428 1429 1430 1430 1431 1431 1432 1433 1434 1434 1434 1435 1435 1435 1435 1435 1435 1434 1434 1434 1433 1432 1431 1430 1430 1429 1427 1426 1424 1423 1421 1420 1418 1417 1415 1413 1411 1409 1408 1406 1404
1423 1424 1424 1425 1426 1427 1427 1428 1429 1429 1430 1430 1431 1432 1432 1432 1432 1432 1432 1432 1431 1431 1430 1429 1429 1428 1427 1426 1424 1422 1421 1419 1418 1416 1415 1414 1412 1410 1408 1406 1404 1402 1401
1420 1420 1420 1421 1422 1423 1424 1424 1425 1425 1426 1427 1427 1428 1428 1429 1429 1429 1429 1429 1429 1428 1428 1427 1426 1425 1424 1423 1422 1420 1418 1416 1415 1414 1412 1410 1409 1407 1405 1403 1401 1400 1398
1415 1416 1416 1417 1418 1419 1420 1421 1421 1422 1422 1423 1424 1424 1425 1425 1426 1426 1426 1426 1426 1425 1425 1424 1424 1423 1422 1421 1419 1417 1416 1414 1413 1411 1409 1407 1406 1404 1402 1400 1399 1397 1396